[[{"header":{"parameterUnit":"m.s-1","parameterCategory":1,"la1":30.2991,"la2":30.254,"lo1":-89.0895,"lo2":-89.0444,"dy":0.0017,"dx":0.0017,"nx":28,"ny":28,"refTime":"2025-04-04T09:00:00:Z","depth":0,"parameterNumber":2,"parameterNumberName":"U-component_of_WINDS"},"data":[0,0,0,0,0,0,0,0,0,0,0,0,0,0,0,0,0,0,0,0,0,0,0,0,0,0,0,0,0,0,0,0,0,0,0,0,0,0,0,0,0,0,0,0,0,0,0,0,0,0,0,0,0,0,0,0,0,0,-5.3198,-5.3199,0,-5.3322,-5.3323,-5.3324,-5.3324,-5.3322,-5.332,-5.3319,-5.3445,-5.345,-5.3455,0,0,0,0,0,0,0,0,0,0,0,0,0,-5.2961,-5.2965,-5.3198,-5.3199,-5.3201,-5.3321,-5.3323,-5.3325,-5.3324,-5.3322,-5.332,-5.3318,-5.3444,-5.345,-5.3455,0,0,0,0,0,0,0,0,0,0,0,0,0,-5.3072,-5.2967,-5.3197,-5.3215,-5.3218,-5.3321,-5.3323,-5.3325,-5.3324,-5.3322,-5.3319,-5.3317,-5.3442,-5.3449,-5.3456,-5.355,0,0,-5.3479,-5.3482,0,0,0,0,0,0,0,0,-5.3066,-5.3081,-5.3211,-5.3214,-5.3217,-5.3305,-5.3286,-5.3401,-5.3325,-5.3284,-5.3319,-5.3316,-5.3401,-5.3411,-5.344,-5.3556,-5.3562,-5.3479,-5.3484,-5.3487,-5.3489,0,0,0,0,0,0,0,-5.3058,-5.3075,-5.3247,-5.3213,-5.3217,-5.3217,-5.323,-5.3308,-5.3354,-5.3287,-5.3287,-5.3302,-5.3402,-5.3433,-5.3443,-5.3564,-5.3479,-5.3486,-5.349,-5.3493,-5.3763,-5.3766,0,0,0,0,0,0,-5.3047,-5.3069,-5.3243,-5.325,-5.3134,-5.3223,-5.3238,-5.3279,-5.3354,-5.3363,-5.3304,-5.3302,-5.3421,-5.3434,-5.3447,-5.3561,-5.3487,-5.3494,-5.3498,-5.3761,-5.3764,-5.3767,0,0,0,0,0,0,-5.3042,-5.3062,-5.3238,-5.316,-5.3182,-5.323,-5.3276,-5.3283,-5.3314,-5.3366,-5.3375,-5.3327,-5.342,-5.3437,-5.3525,-5.3565,-5.3497,-5.3504,-5.3757,-5.3762,-5.3765,-5.379,0,0,0,0,0,0,-5.3035,-5.306,-5.3096,-5.3161,-5.3186,-5.3313,-5.3279,-5.3287,-5.3326,-5.3324,-5.339,-5.3398,-5.3419,-5.3514,-5.3532,-5.3574,-5.3509,-5.3754,-5.3759,-5.3764,-5.3786,-5.3795,-5.3802,0,0,0,0,0,-5.3026,-5.3099,-5.3098,-5.3119,-5.3232,-5.3315,-5.333,-5.3353,-5.333,-5.3366,-5.34,-5.3396,-5.3559,-5.3523,-5.3543,-5.3588,-5.3751,-5.3758,-5.3764,-5.3782,-5.3793,-5.3802,0,0,0,0,0,0,-5.3037,-5.3107,-5.3108,-5.3203,-5.3253,-5.3315,-5.3362,-5.3363,-5.3421,-5.3417,-5.3443,-5.3458,-5.3545,-5.3576,-5.3535,-5.3683,-5.3652,-5.3663,-5.3659,-5.367,-5.3678,-5.3668,-5.3516,0,0,0,0,0,-5.3051,-5.3113,-5.3171,-5.3249,-5.3274,-5.3314,-5.3351,-5.3364,-5.3417,-5.3438,-5.3479,-5.3531,-5.3593,-5.3634,-5.3695,-5.3792,-5.3805,-5.3833,-5.3841,-5.3848,-5.3856,-5.3909,-5.3921,-5.3788,-5.3787,-5.3787,0,0,-5.308,-5.3125,-5.3163,-5.3252,-5.3293,-5.3356,-5.3332,-5.3399,-5.3446,-5.3449,-5.3533,-5.3565,-5.3625,-5.3718,-5.376,-5.3746,-5.3896,-5.3856,-5.3861,-5.3865,-5.3916,-5.3929,-5.394,-5.3792,-5.3791,-5.379,0,0,-5.3163,-5.3205,-5.3274,-5.3315,-5.3377,-5.3403,-5.342,-5.3482,-5.3503,-5.3589,-5.3592,-5.3649,-5.3757,-5.3799,-5.3834,-5.3935,-5.3933,-5.3955,-5.3996,-5.4047,-5.4058,-5.4067,-5.4102,-5.4114,-5.3963,-5.3963,-5.3963,0,-5.319,-5.3285,-5.3309,-5.3377,-5.3416,-5.3423,-5.3493,-5.3532,-5.361,-5.3637,-5.3621,-5.3756,-5.3796,-5.3898,-5.3923,-5.3952,-5.3972,-5.3946,-5.4055,-5.4064,-5.4073,-5.4106,-5.4119,-5.3965,-5.3965,-5.3965,-5.3964,0,-5.3315,-5.3381,-5.343,-5.3505,-5.355,-5.3619,-5.3653,-5.3696,-5.3706,-5.3734,-5.3821,-5.3871,-5.3941,-5.3967,-5.3978,-5.4071,-5.406,-5.4049,-5.4017,-5.4088,-5.4119,-5.4132,-5.3968,-5.3967,-5.3967,-5.3966,0,0,-5.3407,-5.3496,-5.3513,-5.3547,-5.3616,-5.3668,-5.3737,-5.3806,-5.3842,-5.3897,-5.3955,-5.4046,-5.4037,-5.4077,-5.4093,-5.4138,-5.4213,-5.4121,-5.4123,-5.4135,-5.4317,-5.4323,-5.4338,-5.4214,-5.4216,-5.4218,-5.4312,0,-5.3496,-5.3618,-5.3643,-5.3749,-5.381,-5.3817,-5.3878,-5.3927,-5.3955,-5.4011,-5.4043,-5.4107,-5.409,-5.4114,-5.416,-5.4194,-5.425,-5.4188,-5.4267,-5.4269,-5.4249,-5.4354,-5.4361,-5.4447,-5.4324,-5.4326,-5.4328,0,-5.3616,-5.3673,-5.3785,-5.3846,-5.3873,-5.3926,-5.3991,-5.4045,-5.4101,-5.4119,-5.4165,-5.4176,-5.4248,-5.4215,-5.4315,-5.4273,-5.4307,-5.4329,-5.4333,-5.4339,-5.4301,-5.4361,-5.4475,-5.4487,-5.4348,-5.4346,-5.4345,0,-5.3669,-5.3774,-5.3855,-5.3884,-5.3958,-5.3996,-5.4028,-5.4082,-5.4122,-5.418,-5.4206,-5.4271,-5.4306,-5.4357,-5.4385,-5.4359,-5.4482,-5.4452,-5.4498,-5.4497,-5.4521,-5.4519,-5.4639,-5.4547,-5.4547,-5.4547,-5.4547,0,-5.3764,-5.3832,-5.3879,-5.3929,-5.4005,-5.4033,-5.4108,-5.414,-5.4188,-5.4244,-5.4256,-5.4308,-5.4343,-5.44,-5.4423,-5.4502,-5.4518,-5.4534,-5.4539,-5.4531,-5.4529,-5.4552,-5.4546,-5.455,-5.455,-5.4549,-5.4548,0,-5.3835,-5.387,-5.3958,-5.4021,-5.4039,-5.4092,-5.4146,-5.4194,-5.4223,-5.4294,-5.4312,-5.4358,-5.4426,-5.446,-5.4545,-5.456,-5.4648,-5.465,-5.4628,-5.463,-5.4672,-5.4667,-5.481,-5.483,-5.4727,-5.4728,-5.4729,0,-5.3893,-5.3945,-5.4014,-5.4052,-5.4085,-5.4147,-5.4187,-5.4218,-5.426,-5.4328,-5.4368,-5.4437,-5.4492,-5.4601,-5.4642,-5.4707,-5.4709,-5.4755,-5.4719,-5.471,-5.4708,-5.4703,-5.4708,-5.476,-5.4761,-5.4762,-5.4763,0,-5.399,-5.4005,-5.4063,-5.4128,-5.4176,-5.4229,-5.428,-5.4311,-5.4349,-5.4396,-5.4466,-5.4509,-5.4596,-5.4664,-5.4732,-5.4765,-5.477,-5.4775,-5.4788,-5.478,-5.4764,-5.4771,-5.4643,-5.477,-5.477,-5.4769,-5.4769,-5.4768,-5.4055,-5.4102,-5.4157,-5.4222,-5.4264,-5.4312,-5.436,-5.4395,-5.4454,-5.4526,-5.4541,-5.4614,-5.467,-5.4762,-5.4798,-5.4856,-5.4846,-5.4866,-5.4871,-5.4874,-5.4875,-5.4757,-5.4869,-5.4868,-5.4868,-5.4868,-5.4868,0,-5.4152,-5.4188,-5.4247,-5.4319,-5.437,-5.4371,-5.4428,-5.447,-5.4535,-5.4586,-5.4641,-5.4721,-5.4787,-5.4834,-5.4901,-5.4938,-5.4942,-5.4954,-5.495,-5.4958,-5.4882,-5.4862,-5.495,-5.495,-5.495,-5.495,-5.495,-5.495,-5.4208,-5.4286,-5.4307,-5.4407,-5.4443,-5.4514,-5.4547,-5.4591,-5.4632,-5.472,-5.4775,-5.4805,-5.4855,-5.4926,-5.4986,-5.4998,-5.5021,-5.5034,-5.5045,-5.4972,-5.4963,-5.4955,-5.4937,-5.5039,-5.5039,-5.5117,-5.5117,-5.5118]},{"header":{"parameterUnit":"m.s-1","parameterCategory":1,"la1":30.2991,"la2":30.254,"lo1":-89.0895,"lo2":-89.0444,"dy":0.0017,"dx":0.0017,"nx":28,"ny":28,"refTime":"2025-04-04T09:00:00:Z","depth":0,"parameterNumber":3,"parameterNumberName":"V-component_of_WINDS"},"data":[0,0,0,0,0,0,0,0,0,0,0,0,0,0,0,0,0,0,0,0,0,0,0,0,0,0,0,0,0,0,0,0,0,0,0,0,0,0,0,0,0,0,0,0,0,0,0,0,0,0,0,0,0,0,0,0,0,0,4.4555,4.4556,0,4.4703,4.4705,4.4707,4.474,4.4739,4.4738,4.4737,4.4888,4.4893,4.4898,0,0,0,0,0,0,0,0,0,0,0,0,0,4.43,4.4304,4.4554,4.4556,4.4558,4.4703,4.4705,4.4707,4.474,4.4739,4.4738,4.4737,4.4886,4.4892,4.4898,0,0,0,0,0,0,0,0,0,0,0,0,0,4.4426,4.4306,4.4554,4.4592,4.4597,4.4703,4.4705,4.4708,4.4741,4.4739,4.4737,4.4736,4.4884,4.4891,4.4899,4.4977,0,0,4.4922,4.4925,0,0,0,0,0,0,0,0,4.4418,4.4435,4.4585,4.459,4.4596,4.4702,4.4671,4.4798,4.4741,4.4686,4.4737,4.4735,4.4827,4.4839,4.487,4.4984,4.499,4.4922,4.4927,4.493,4.4932,0,0,0,0,0,0,0,4.441,4.4429,4.4613,4.4587,4.4594,4.4602,4.4618,4.4695,4.4763,4.4691,4.4694,4.4711,4.483,4.4863,4.4874,4.4992,4.4922,4.4929,4.4933,4.4936,4.5181,4.5183,0,0,0,0,0,0,4.4394,4.4421,4.4609,4.4618,4.4501,4.4608,4.4626,4.4669,4.4763,4.4776,4.4712,4.4712,4.4851,4.4865,4.488,4.498,4.493,4.4937,4.4941,4.5179,4.5181,4.5183,0,0,0,0,0,0,4.4389,4.4411,4.4603,4.4521,4.4546,4.4614,4.4662,4.4673,4.4707,4.4779,4.4791,4.4734,4.485,4.4869,4.4953,4.4985,4.494,4.4947,4.5176,4.5179,4.5182,4.5178,0,0,0,0,0,0,4.4381,4.4408,4.4438,4.4521,4.455,4.4674,4.4664,4.4677,4.472,4.4721,4.4802,4.4814,4.4851,4.4942,4.4961,4.4995,4.4953,4.5174,4.5178,4.5181,4.5176,4.5181,4.5185,0,0,0,0,0,4.4372,4.443,4.444,4.4462,4.4589,4.4675,4.4692,4.4733,4.4722,4.4753,4.48,4.4812,4.4978,4.495,4.4972,4.5008,4.5172,4.5177,4.5181,4.5174,4.518,4.5185,0,0,0,0,0,0,4.4348,4.4442,4.4453,4.454,4.46,4.4681,4.4721,4.4737,4.4801,4.4799,4.4847,4.4865,4.4947,4.4986,4.4953,4.509,4.5075,4.5084,4.5062,4.5068,4.5073,4.5062,4.4959,0,0,0,0,0,4.4353,4.4416,4.4494,4.4563,4.4592,4.4652,4.4691,4.4718,4.4781,4.4806,4.4859,4.492,4.4987,4.5029,4.5094,4.5181,4.5201,4.5217,4.5222,4.5225,4.5233,4.5285,4.5294,4.5198,4.5198,4.5198,0,0,4.4364,4.4423,4.4459,4.456,4.4609,4.4674,4.4672,4.474,4.4789,4.4816,4.49,4.4941,4.5013,4.5099,4.514,4.5134,4.5264,4.5231,4.5233,4.5239,4.529,4.5299,4.5307,4.5201,4.52,4.52,0,0,4.4417,4.4467,4.4531,4.4581,4.4657,4.4697,4.4712,4.4792,4.4821,4.4905,4.4928,4.4987,4.5099,4.5151,4.5191,4.5267,4.5281,4.5286,4.531,4.536,4.5368,4.5375,4.5404,4.5414,4.5293,4.5293,4.5293,0,4.4421,4.4519,4.4562,4.463,4.4674,4.4704,4.477,4.4817,4.4909,4.4939,4.4932,4.5076,4.5126,4.5227,4.5246,4.5277,4.5297,4.5278,4.5363,4.5371,4.5378,4.5406,4.5417,4.5294,4.5294,4.5294,4.5294,0,4.4521,4.4589,4.4632,4.4722,4.4772,4.4838,4.4892,4.4937,4.496,4.5,4.5088,4.5149,4.5229,4.5254,4.5276,4.5359,4.5353,4.5354,4.534,4.5387,4.5414,4.5425,4.5294,4.5294,4.5294,4.5294,0,0,4.4562,4.4678,4.4693,4.4736,4.4822,4.4876,4.4945,4.5024,4.5062,4.5125,4.5185,4.5281,4.5284,4.533,4.5358,4.5402,4.5461,4.5398,4.54,4.5409,4.5559,4.5559,4.5571,4.5471,4.5473,4.5475,4.5554,0,4.4628,4.4752,4.4794,4.4897,4.4962,4.4992,4.5052,4.5112,4.5153,4.5214,4.5258,4.5326,4.5323,4.5351,4.5396,4.5444,4.5492,4.5439,4.5528,4.5531,4.5511,4.5585,4.5585,4.5657,4.5565,4.5566,4.5568,0,4.472,4.4787,4.4897,4.4978,4.5007,4.506,4.5138,4.5195,4.5265,4.5291,4.5344,4.537,4.5444,4.5425,4.5529,4.5492,4.5531,4.5561,4.5565,4.5576,4.5553,4.56,4.568,4.5692,4.5585,4.5583,4.5582,0,4.4742,4.4859,4.4941,4.4976,4.5073,4.511,4.5152,4.522,4.5266,4.5333,4.5364,4.5438,4.5479,4.5536,4.5582,4.5564,4.5683,4.5667,4.5708,4.5708,4.5733,4.5731,4.5823,4.5755,4.5755,4.5755,4.5754,0,4.4812,4.4878,4.4953,4.5003,4.508,4.5128,4.5202,4.5246,4.5307,4.5367,4.5397,4.5453,4.5509,4.5573,4.5609,4.5691,4.5709,4.5733,4.5742,4.5732,4.5729,4.5759,4.5756,4.5758,4.5757,4.5756,4.5756,0,4.485,4.4902,4.4994,4.5078,4.5101,4.5154,4.5227,4.5277,4.5319,4.5396,4.5416,4.5482,4.5559,4.5611,4.5708,4.5732,4.5823,4.5829,4.58,4.5804,4.5844,4.584,4.5959,4.5978,4.5896,4.5896,4.5897,0,4.4891,4.4944,4.5035,4.5078,4.512,4.5188,4.5236,4.5286,4.5334,4.5419,4.546,4.5539,4.5605,4.5726,4.5783,4.5859,4.5869,4.5906,4.5881,4.5869,4.5873,4.587,4.5876,4.591,4.5911,4.5911,4.5911,0,4.4961,4.4985,4.5052,4.513,4.5186,4.5249,4.5312,4.5345,4.5406,4.5459,4.5539,4.559,4.5691,4.577,4.5852,4.5895,4.5915,4.5919,4.5933,4.5923,4.5905,4.5918,4.5812,4.5916,4.5916,4.5915,4.5915,4.5915,4.5004,4.5053,4.5126,4.52,4.5254,4.5313,4.5366,4.5415,4.5482,4.5569,4.5595,4.5678,4.5749,4.586,4.5906,4.5972,4.5969,4.5988,4.5993,4.5998,4.6,4.5893,4.5987,4.5987,4.5987,4.5987,4.5986,0,4.5077,4.5126,4.5194,4.5283,4.5342,4.5355,4.5427,4.5476,4.5549,4.5613,4.5679,4.5771,4.5849,4.5912,4.5992,4.6034,4.6045,4.6053,4.6052,4.6062,4.5997,4.5978,4.6043,4.6043,4.6043,4.6043,4.6043,4.6043,4.5122,4.5207,4.524,4.5352,4.5401,4.5484,4.5524,4.5579,4.5631,4.5734,4.5798,4.584,4.5905,4.599,4.6062,4.6079,4.6108,4.6115,4.6134,4.6072,4.6066,4.606,4.6043,4.612,4.612,4.6194,4.6194,4.6195]}]]